EW7658 Weather Reports


time (UTC)temp
C
wind
direction
speed
KPH
gust
KPH
rain 1hr
cm
rain 24hr
cm
rain mn
cm
humidity
%
barometer
mb
20260906155526 27 0 0.0 12.9 0.00 0.00 0.00 78 1017.9
20260906155023 27 0 0.0 11.3 0.00 0.00 0.00 79 1018.1
20260906154552 27 0 0.0 6.4 0.00 0.00 0.00 80 1018.1
20260906154030 27 0 0.0 0.0 0.00 0.00 0.00 80 1017.9
20260906153529 27 0 0.0 0.0 0.00 0.00 0.00 81 1017.7
20260906153105 26 0 0.0 0.0 0.00 0.00 0.00 80 1017.8
20260906152526 26 0 0.0 1.6 0.00 0.00 0.00 81 1017.7
20260906152024 26 0 0.0 3.2 0.00 0.00 0.00 82 1017.8
20260906151546 26 0 0.0 3.2 0.00 0.00 0.00 82 1017.7
20260906151025 26 0 0.0 12.9 0.00 0.00 0.00 82 1017.4
20260906150524 26 0 0.0 12.9 0.00 0.00 0.00 83 1017.3
20260906150046 26 44 1.6 12.9 0.00 0.00 0.00 83 1017.3
20260906145526 26 0 0.0 4.8 0.00 0.00 0.00 83 1017.4
20260906145026 26 100 0.0 0.0 0.00 0.00 0.00 83 1017.4
20260906144549 26 0 0.0 0.0 0.00 0.00 0.00 85 1017.4
20260906144025 25 0 0.0 0.0 0.00 0.00 0.00 84 1017.4
20260906143528 25 0 0.0 6.4 0.00 0.00 0.00 85 1017.3
20260906143047 25 0 0.0 6.4 0.00 0.00 0.00 85 1017.4
20260906142525 25 0 0.0 6.4 0.00 0.00 0.00 85 1017.3
20260906142025 25 0 0.0 6.4 0.00 0.00 0.00 86 1017.3
20260906141559 25 0 0.0 0.0 0.00 0.00 0.00 87 1017.1
20260906141024 25 0 0.0 0.0 0.00 0.00 0.00 87 1017.1
20260906140523 25 0 0.0 0.0 0.00 0.00 0.00 87 1016.9
20260906140044 25 0 0.0 0.0 0.00 0.00 0.00 87 1016.8
20260906135525 24 0 0.0 9.7 0.00 0.00 0.00 87 1016.9
20260906135025 24 0 0.0 9.7 0.00 0.00 0.00 88 1017.0
20260906134542 24 0 0.0 0.0 0.00 0.00 0.00 88 1017.0
20260906134026 24 0 0.0 9.7 0.00 0.00 0.00 88 1017.0
20260906133526 24 0 0.0 9.7 0.00 0.00 0.00 88 1017.1
20260906133055 24 0 1.6 9.7 0.00 0.00 0.00 88 1017.1
20260906132526 23 0 0.0 0.0 0.00 0.00 0.00 89 1017.0
20260906132024 23 0 0.0 0.0 0.00 0.00 0.00 89 1016.9
20260906131559 23 0 0.0 11.3 0.00 0.00 0.00 90 1017.0
20260906131025 23 0 0.0 11.3 0.00 0.00 0.00 91 1017.1
20260906130524 23 94 1.6 11.3 0.00 0.00 0.00 90 1017.1
20260906130054 23 0 0.0 8.0 0.00 0.00 0.00 90 1017.1
20260906125525 23 0 0.0 3.2 0.00 0.00 0.00 91 1017.1
20260906125023 23 0 0.0 3.2 0.00 0.00 0.00 91 1017.0
20260906124548 22 0 0.0 3.2 0.00 0.00 0.00 91 1017.0
20260906124025 22 0 0.0 0.0 0.00 0.00 0.00 92 1017.1
20260906123524 22 0 0.0 0.0 0.00 0.00 0.00 92 1017.0
20260906123047 22 0 0.0 0.0 0.00 0.00 0.00 93 1016.9
20260906122526 22 0 0.0 0.0 0.00 0.00 0.00 93 1016.8
20260906122025 -17 0.0 0.0 0.00 0.00 0.00 1016.7
20260906121544 -17 0.0 0.0 0.00 0.00 0.00 1016.7
20260906121029 -17 0.0 0.0 0.00 0.00 0.00 1016.6
20260906120527 -17 0.0 0.0 0.00 0.00 0.00 1016.6
20260906120045 -17 0.0 0.0 0.00 0.00 0.00 1016.6
20260906115524 -17 0.0 0.0 0.00 0.00 0.00 1016.5
20260906115022 -17 0.0 0.0 0.00 0.00 0.00 1016.3
20260906114548 -17 0.0 0.0 0.00 0.00 0.00 1016.2
20260906114023 -17 0.0 0.0 0.00 0.00 0.00 1016.3
20260906113521 -17 0.0 0.0 0.00 0.00 0.00 1016.2
20260906113047 -17 0.0 0.0 0.00 0.00 0.00 1016.1
20260906112521 -17 0.0 0.0 0.00 0.00 0.00 1016.2
20260906112026 -17 0.0 0.0 0.00 0.00 0.00 1016.1
20260906111547 -17 0.0 0.0 0.00 0.00 0.00 1016.1
20260906111024 -17 0.0 0.0 0.00 0.00 0.00 1016.2
20260906110524 -17 0.0 0.0 0.00 0.00 0.00 1016.1
20260906110043 -17 0.0 0.0 0.00 0.00 0.00 1016.1
20260906105524 -17 0.0 0.0 0.00 0.00 0.00 1016.1
20260906105024 -17 0.0 0.0 0.00 0.00 0.00 1016.1
20260906104541 -17 0.0 0.0 0.00 0.00 0.00 1016.0
20260906104024 -17 0 0.0 0.0 0.00 0.00 0.00 1016.0
20260906103524 23 0 0.0 0.0 0.00 0.00 0.00 91 1015.9
20260906103049 23 0 0.0 0.0 0.00 0.00 0.00 91 1015.9
20260906102528 23 0 0.0 0.0 0.00 0.00 0.00 91 1015.9
20260906102021 23 0 0.0 0.0 0.00 0.00 0.00 91 1015.7
20260906101544 23 0 0.0 0.0 0.00 0.00 0.00 91 1015.7
20260906101024 23 0 0.0 0.0 0.00 0.00 0.00 91 1015.6
20260906100528 23 0 0.0 0.0 0.00 0.00 0.00 91 1015.7
20260906100042 23 0 0.0 0.0 0.00 0.00 0.00 91 1015.5
20260906095525 23 0 0.0 0.0 0.00 0.00 0.00 90 1015.5
20260906095046 23 0 0.0 0.0 0.00 0.00 0.00 90 1015.4
20260906094557 23 0 0.0 0.0 0.00 0.00 0.00 90 1015.5
20260906094028 23 0 0.0 0.0 0.00 0.00 0.00 90 1015.4
20260906093525 23 0 0.0 0.0 0.00 0.00 0.00 90 1015.4
20260906093050 24 0 0.0 0.0 0.00 0.00 0.00 90 1015.4
20260906092523 24 0 0.0 0.0 0.00 0.00 0.00 90 1015.4
20260906092024 24 0 0.0 0.0 0.00 0.00 0.00 90 1015.4
20260906091549 24 0 0.0 0.0 0.00 0.00 0.00 91 1015.4
20260906091024 24 0 0.0 0.0 0.00 0.00 0.00 91 1015.4
20260906090525 24 0 0.0 1.6 0.00 0.00 0.00 90 1015.4
20260906090052 24 0 0.0 1.6 0.00 0.00 0.00 91 1015.5
20260906085525 24 0 0.0 0.0 0.00 0.00 0.00 91 1015.3
20260906085023 24 0 0.0 0.0 0.00 0.00 0.00 91 1015.3
20260906084547 25 0 0.0 0.0 0.00 0.00 0.00 91 1015.2
20260906084035 25 0 0.0 0.0 0.00 0.00 0.00 91 1015.1
20260906083526 25 0 0.0 0.0 0.00 0.00 0.00 91 1015.1
20260906083047 25 0 0.0 0.0 0.00 0.00 0.00 91 1015.1
20260906082523 25 0 0.0 0.0 0.00 0.00 0.00 92 1015.0
20260906082024 25 0 0.0 0.0 0.00 0.00 0.00 92 1015.0
20260906081547 25 0 0.0 0.0 0.00 0.00 0.00 92 1015.1
20260906081024 25 0 0.0 0.0 0.00 0.00 0.00 92 1015.0
20260906080524 25 0 0.0 0.0 0.00 0.00 0.00 92 1014.9
20260906080047 25 0 0.0 0.0 0.00 0.00 0.00 92 1014.8
20260906075523 25 0 0.0 0.0 0.00 0.00 0.00 92 1014.9
20260906075022 25 0 0.0 0.0 0.00 0.00 0.00 92 1014.9
20260906074548 25 0 0.0 0.0 0.00 0.00 0.00 92 1014.9
20260906074025 25 0 0.0 0.0 0.00 0.00 0.00 91 1014.9
20260906073528 25 0 0.0 0.0 0.00 0.00 0.00 91 1015.0
20260906073047 25 0 0.0 0.0 0.00 0.00 0.00 91 1015.2
20260906072531 25 0 0.0 0.0 0.00 0.00 0.00 91 1015.0
20260906072025 25 0 0.0 0.0 0.00 0.00 0.00 90 1015.1
20260906071545 25 0 0.0 0.0 0.00 0.00 0.00 90 1015.1
20260906071024 25 0 0.0 0.0 0.00 0.00 0.00 90 1015.0
20260906070528 25 0 0.0 0.0 0.00 0.00 0.00 89 1015.0
20260906070045 26 0 0.0 0.0 0.00 0.00 0.00 89 1015.0
20260906065523 26 0 0.0 0.0 0.00 0.00 0.00 89 1014.9
20260906065027 26 0 0.0 0.0 0.00 0.00 0.00 89 1014.9
20260906064549 26 0 0.0 0.0 0.00 0.00 0.00 89 1014.9
20260906064026 26 0 0.0 0.0 0.00 0.00 0.00 89 1014.9
20260906063525 26 0 0.0 1.6 0.00 0.00 0.00 90 1015.1
20260906063047 25 0 0.0 1.6 0.00 0.00 0.00 90 1015.0
20260906062530 25 0 0.0 1.6 0.00 0.00 0.00 90 1014.9
20260906062027 25 0 0.0 0.0 0.00 0.00 0.00 90 1014.9
20260906061549 25 0 0.0 0.0 0.00 0.00 0.00 90 1014.9
20260906061024 25 0 0.0 0.0 0.00 0.00 0.00 90 1014.9
20260906060523 25 0 0.0 0.0 0.00 0.00 0.00 89 1014.9
20260906060054 25 0 0.0 0.0 0.00 0.00 0.00 89 1014.7
20260906055524 25 0 0.0 0.0 0.00 0.00 0.00 89 1014.9
20260906055027 25 0 0.0 0.0 0.00 0.00 0.00 89 1014.8
20260906054553 25 0 0.0 0.0 0.00 0.00 0.00 89 1014.8
20260906054026 25 0 0.0 0.0 0.00 0.00 0.00 88 1014.8
20260906053528 25 0 0.0 0.0 0.00 0.00 0.00 88 1014.9
20260906053047 25 0 0.0 0.0 0.00 0.00 0.00 88 1014.8
20260906052524 25 0 0.0 0.0 0.00 0.00 0.00 88 1014.9
20260906052028 25 0 0.0 0.0 0.00 0.00 0.00 88 1014.8
20260906051545 25 0 0.0 0.0 0.00 0.00 0.00 87 1014.7
20260906051025 25 0 0.0 0.0 0.00 0.00 0.00 87 1014.8
20260906050527 25 0 0.0 0.0 0.00 0.00 0.00 87 1014.8
20260906050045 25 0 0.0 0.0 0.00 0.00 0.00 87 1014.7
20260906045524 25 0 0.0 0.0 0.00 0.00 0.00 86 1014.7
20260906045026 25 0 0.0 0.0 0.00 0.00 0.00 86 1014.6
20260906044548 26 0 0.0 0.0 0.00 0.00 0.00 86 1014.8
20260906044026 26 0 0.0 0.0 0.00 0.00 0.00 86 1014.5
20260906043529 26 0 0.0 0.0 0.00 0.00 0.00 86 1014.6
20260906043045 26 0 0.0 0.0 0.00 0.00 0.00 86 1014.6
20260906042523 26 0 0.0 0.0 0.00 0.00 0.00 84 1014.6
20260906042024 26 0 0.0 0.0 0.00 0.00 0.00 84 1014.7
20260906041546 26 0 0.0 0.0 0.00 0.00 0.00 84 1014.5
20260906041024 26 0 0.0 0.0 0.00 0.00 0.00 84 1014.5
20260906040524 26 0 0.0 0.0 0.00 0.00 0.00 84 1014.4
20260906040053 26 0 0.0 0.0 0.00 0.00 0.00 84 1014.4
20260906035522 26 0 0.0 0.0 0.00 0.00 0.00 84 1014.3
20260906035026 26 0 0.0 0.0 0.00 0.00 0.00 84 1014.3
20260906034559 26 0 0.0 0.0 0.00 0.00 0.00 84 1014.4
20260906034026 26 0 0.0 0.0 0.00 0.00 0.00 84 1014.4
20260906033525 26 0 0.0 0.0 0.00 0.00 0.00 84 1014.4
20260906033046 26 0 0.0 0.0 0.00 0.00 0.00 84 1014.3
20260906032523 26 0 0.0 0.0 0.00 0.00 0.00 83 1014.3
20260906032025 26 0 0.0 0.0 0.00 0.00 0.00 83 1014.2
20260906031544 26 0 0.0 0.0 0.00 0.00 0.00 83 1014.1
20260906031024 26 0 0.0 0.0 0.00 0.00 0.00 83 1014.0
20260906030527 27 0 0.0 0.0 0.00 0.00 0.00 83 1014.0
20260906030048 27 0 0.0 0.0 0.00 0.00 0.00 82 1014.0
20260906025528 27 0 0.0 0.0 0.00 0.00 0.00 81 1014.0
20260906025027 27 0 0.0 0.0 0.00 0.00 0.00 81 1013.9
20260906024552 27 0 0.0 0.0 0.00 0.00 0.00 81 1013.8
20260906024027 27 0 0.0 0.0 0.00 0.00 0.00 80 1013.8
20260906023525 27 0 0.0 0.0 0.00 0.00 0.00 80 1013.8
20260906023044 27 0 0.0 0.0 0.00 0.00 0.00 80 1013.6
20260906022527 27 0 0.0 0.0 0.00 0.00 0.00 79 1013.5
20260906022026 27 0 0.0 0.0 0.00 0.00 0.00 79 1013.4
20260906021547 27 0 0.0 0.0 0.00 0.00 0.00 78 1013.4
20260906021025 28 0 0.0 0.0 0.00 0.00 0.00 78 1013.2
20260906020526 28 0 0.0 0.0 0.00 0.00 0.00 78 1013.2
20260906020047 28 0 0.0 0.0 0.00 0.00 0.00 78 1013.1
20260906015524 28 0 0.0 0.0 0.00 0.00 0.00 77 1013.1
20260906015025 28 0 0.0 0.0 0.00 0.00 0.00 76 1013.0
20260906014548 28 0 0.0 0.0 0.00 0.00 0.00 75 1012.9
20260906014028 28 0 0.0 0.0 0.00 0.00 0.00 75 1012.9
20260906013526 28 0 0.0 0.0 0.00 0.00 0.00 75 1012.8
20260906013049 28 0 0.0 0.0 0.00 0.00 0.00 74 1012.7
20260906012529 29 0 0.0 0.0 0.00 0.00 0.00 74 1012.7
20260906012026 29 0 0.0 0.0 0.00 0.00 0.00 73 1012.6
20260906011547 29 0 0.0 0.0 0.00 0.00 0.00 73 1012.6
20260906011025 30 0 0.0 0.0 0.00 0.00 0.00 72 1012.6
20260906010526 30 0 0.0 0.0 0.00 0.00 0.00 71 1012.6
20260906010108 30 0 0.0 0.0 0.00 0.00 0.00 71 1012.6
20260906005525 30 0 0.0 0.0 0.00 0.00 0.00 70 1012.6
20260906005026 30 0 0.0 0.0 0.00 0.00 0.00 68 1012.5
20260906004555 31 0 0.0 0.0 0.00 0.00 0.00 68 1012.4
20260906004029 31 0 0.0 0.0 0.00 0.00 0.00 67 1012.4
20260906003524 31 0 0.0 0.0 0.00 0.00 0.00 67 1012.4
20260906003043 31 0 0.0 0.0 0.00 0.00 0.00 67 1012.4
20260906002524 31 0 0.0 0.0 0.00 0.00 0.00 67 1012.3
20260906002027 31 0 0.0 0.0 0.00 0.00 0.00 67 1012.4
20260906001600 31 0 0.0 0.0 0.00 0.00 0.00 66 1012.5
20260906001024 31 0 0.0 0.0 0.00 0.00 0.00 66 1012.6
20260906000524 32 0 0.0 0.0 0.00 0.00 0.00 66 1012.6
20260906000047 32 0 0.0 0.0 0.00 0.00 0.00 65 1012.7
20260905235525 32 0 0.0 0.0 0.00 0.00 0.00 65 1012.6
20260905235024 32 0 0.0 0.0 0.00 0.00 0.00 62 1012.5
20260905234543 32 0 0.0 0.0 0.00 0.00 0.00 62 1012.4
20260905234024 32 0 0.0 0.0 0.00 0.00 0.00 61 1012.6
20260905233524 32 0 0.0 0.0 0.00 0.00 0.00 61 1012.6
20260905233050 32 0 0.0 0.0 0.00 0.00 0.00 62 1012.6
20260905232527 32 0 0.0 0.0 0.00 0.00 0.00 62 1012.5
20260905232024 32 0 0.0 0.0 0.00 0.00 0.00 62 1012.5
20260905231546 32 0 0.0 0.0 0.00 0.00 0.00 62 1012.5
20260905231028 32 0 0.0 0.0 0.00 0.00 0.00 61 1012.6
20260905230525 32 0 0.0 0.0 0.00 0.00 0.00 61 1012.7
20260905230047 33 0 0.0 0.0 0.00 0.00 0.00 60 1012.7
20260905225530 33 0 0.0 0.0 0.00 0.00 0.00 60 1012.7
20260905225022 33 0 0.0 0.0 0.00 0.00 0.00 59 1012.6
20260905224548 33 0 0.0 1.6 0.00 0.00 0.00 58 1012.7
20260905224025 34 0 0.0 1.6 0.00 0.00 0.00 57 1012.6
20260905223525 35 0 0.0 1.6 0.00 0.00 0.00 55 1012.5
20260905223052 35 0 0.0 8.0 0.00 0.00 0.00 54 1012.4
20260905222525 35 0 0.0 8.0 0.00 0.00 0.00 54 1012.4
20260905222025 35 0 0.0 8.0 0.00 0.00 0.00 52 1012.3
20260905221544 36 0 0.0 0.0 0.00 0.00 0.00 50 1012.4
20260905221025 36 0 0.0 0.0 0.00 0.00 0.00 49 1012.3
20260905220527 36 0 0.0 4.8 0.00 0.00 0.00 50 1012.4
20260905220051 36 0 0.0 4.8 0.00 0.00 0.00 50 1012.3
20260905215526 37 0 0.0 4.8 0.00 0.00 0.00 50 1012.4
20260905215027 37 0 0.0 0.0 0.00 0.00 0.00 49 1012.3
20260905214548 37 0 0.0 0.0 0.00 0.00 0.00 51 1012.4
20260905214024 37 0 0.0 0.0 0.00 0.00 0.00 50 1012.4
20260905213528 37 0 0.0 9.7 0.00 0.00 0.00 49 1012.4
20260905213049 38 0 0.0 9.7 0.00 0.00 0.00 48 1012.4
20260905212528 38 0 0.0 4.8 0.00 0.00 0.00 47 1012.3
20260905212026 37 0 0.0 0.0 0.00 0.00 0.00 47 1012.2
20260905211546 37 0 0.0 0.0 0.00 0.00 0.00 48 1012.3
20260905211025 37 0 0.0 0.0 0.00 0.00 0.00 48 1012.3
20260905210524 36 0 0.0 0.0 0.00 0.00 0.00 47 1012.3
20260905210056 36 0 0.0 0.0 0.00 0.00 0.00 49 1012.4
20260905205524 36 0 0.0 0.0 0.00 0.00 0.00 48 1012.5
20260905205023 36 0 0.0 3.2 0.00 0.00 0.00 48 1012.6
20260905204546 36 0 0.0 3.2 0.00 0.00 0.00 48 1012.9
20260905204025 36 0 0.0 11.3 0.00 0.00 0.00 49 1012.9
20260905203526 36 0 0.0 11.3 0.00 0.00 0.00 49 1012.8
20260905203046 36 0 0.0 9.7 0.00 0.00 0.00 48 1012.8
20260905202525 36 0 1.6 11.3 0.00 0.00 0.00 49 1012.7
20260905202025 36 0 0.0 19.3 0.00 0.00 0.00 50 1012.7
20260905201544 36 94 3.2 19.3 0.00 0.00 0.00 49 1012.8
20260905201025 37 0 1.6 16.1 0.00 0.00 0.00 49 1012.7
20260905200523 37 0 0.0 12.9 0.00 0.00 0.00 49 1012.9
20260905200112 37 0 0.0 12.9 0.00 0.00 0.00 48 1013.0
20260905195526 37 0 0.0 11.3 0.00 0.00 0.00 50 1013.0
20260905195025 37 0 0.0 12.9 0.00 0.00 0.00 47 1013.1
20260905194546 37 0 0.0 12.9 0.00 0.00 0.00 48 1013.2
20260905194026 38 59 1.6 12.9 0.00 0.00 0.00 46 1013.2
20260905193524 38 0 0.0 0.0 0.00 0.00 0.00 45 1013.3
20260905193044 38 0 0.0 1.6 0.00 0.00 0.00 43 1013.3
20260905192525 38 0 0.0 9.7 0.00 0.00 0.00 42 1013.3
20260905192025 38 0 0.0 9.7 0.00 0.00 0.00 42 1013.4
20260905191544 38 0 0.0 0.0 0.00 0.00 0.00 44 1013.4
20260905191023 38 0 0.0 0.0 0.00 0.00 0.00 44 1013.5
20260905190524 38 0 0.0 0.0 0.00 0.00 0.00 44 1013.5
20260905190051 38 0 0.0 0.0 0.00 0.00 0.00 44 1013.5
20260905185522 38 0 0.0 1.6 0.00 0.00 0.00 43 1013.6
20260905185029 38 0 0.0 1.6 0.00 0.00 0.00 43 1013.8
20260905184555 38 0 0.0 0.0 0.00 0.00 0.00 44 1013.8
20260905184025 38 0 0.0 0.0 0.00 0.00 0.00 43 1013.8
20260905183526 39 0 0.0 0.0 0.00 0.00 0.00 44 1013.9
20260905183046 39 0 0.0 0.0 0.00 0.00 0.00 45 1013.8
20260905182525 39 0 0.0 0.0 0.00 0.00 0.00 43 1013.8
20260905182028 39 0 0.0 0.0 0.00 0.00 0.00 46 1013.9
20260905181546 38 0 0.0 0.0 0.00 0.00 0.00 43 1013.9
20260905181022 38 0 0.0 1.6 0.00 0.00 0.00 45 1014.0
20260905180524 38 0 0.0 6.4 0.00 0.00 0.00 46 1014.1
20260905180050 38 0 0.0 6.4 0.00 0.00 0.00 46 1014.0
20260905175526 38 0 0.0 0.0 0.00 0.00 0.00 47 1014.2
20260905175026 38 0 0.0 0.0 0.00 0.00 0.00 46 1014.2
20260905174546 38 0 0.0 12.9 0.00 0.00 0.00 45 1014.4
20260905174024 38 0 0.0 12.9 0.00 0.00 0.00 49 1014.3
20260905173524 37 275 0.0 12.9 0.00 0.00 0.00 47 1014.4
20260905173050 38 0 0.0 3.2 0.00 0.00 0.00 48 1014.4
20260905172525 37 0 0.0 0.0 0.00 0.00 0.00 49 1014.3
20260905172025 37 201 0.0 0.0 0.00 0.00 0.00 50 1014.4
20260905171544 37 0 0.0 0.0 0.00 0.00 0.00 53 1014.4
20260905171027 37 0 0.0 0.0 0.00 0.00 0.00 51 1014.5
20260905170523 37 0 0.0 0.0 0.00 0.00 0.00 53 1014.6
20260905170050 37 0 0.0 0.0 0.00 0.00 0.00 53 1014.7
20260905165525 37 0 0.0 0.0 0.00 0.00 0.00 54 1014.7
20260905165025 37 0 0.0 0.0 0.00 0.00 0.00 55 1014.9
20260905164548 36 0 0.0 3.2 0.00 0.00 0.00 54 1014.9
20260905164027 36 0 0.0 3.2 0.00 0.00 0.00 55 1015.0
20260905163524 36 0 0.0 0.0 0.00 0.00 0.00 54 1015.0
20260905163045 36 0 0.0 0.0 0.00 0.00 0.00 54 1015.1
20260905162524 36 0 0.0 0.0 0.00 0.00 0.00 54 1015.1
20260905162023 36 0 0.0 0.0 0.00 0.00 0.00 55 1015.1
20260905161544 36 0 0.0 0.0 0.00 0.00 0.00 55 1015.1
20260905161030 36 0 0.0 0.0 0.00 0.00 0.00 57 1015.2
20260905160523 35 0 0.0 0.0 0.00 0.00 0.00 56 1015.1
20260905160042 35 0 0.0 3.2 0.00 0.00 0.00 56 1015.0